Tracking 29065 objects as of 22-Jul-2024
HD Live streaming from Space Station
objects crossing your sky now

COSMOS 1275 DEB

Track COSMOS 1275 DEB now!
10-day predictions


NORAD ID: 17615
Int'l Code: 1981-053KM
Perigee: 832.3 km
Apogee: 892.3 km
Inclination: 82.9 °
Period: 102.0 minutes
Semi major axis: 7233 km
RCS: 0.0146 m2 (small)
Launch date: June 4, 1981
Source: Commonwealth of Independent States (former USSR) (CIS)
Launch site: PLESETSK MISSILE AND SPACE COMPLEX (PKMTR)

Note: This is SATELLITE DEBRIS
Your satellite tracking list
Your tracking list is empty




NASA's NSSDC Master Catalog

Two Line Element Set (TLE):
1 17615U 81053KJ  24204.31261068  .00004895  00000-0  26831-2 0  9994
2 17615  82.8584 305.7003 0041470 274.8631 140.9398 14.11234567994923
Source of the keplerian elements: AFSPC